Date,TemperatureHighF,TemperatureAvgF,TemperatureLowF,DewpointHighF,DewpointAvgF,DewpointLowF,HumidityHigh,HumidityAvg,HumidityLow,PressureMaxIn,PressureMinIn,WindSpeedMaxMPH,WindSpeedAvgMPH,GustSpeedMaxMPH,PrecipitationSumIn
2013-1-2,40.0,35.6,33.0,32.0,30.6,29.0,91,82,73,30.04,29.95,6,1,10,0.08
2013-1-3,39.0,33.2,29.0,33.0,28.0,20.0,94,82,65,30.14,30.01,7,2,18,0.01
2013-1-4,41.0,29.5,25.0,21.0,18.5,16.0,77,64,39,30.20,30.11,15,5,30,0.00
2013-1-5,49.0,35.0,23.0,28.0,18.9,15.0,73,54,27,30.25,30.10,9,2,27,0.00
2013-1-6,44.0,36.4,33.0,34.0,29.7,24.0,88,77,59,30.12,29.98,18,8,33,0.00
2013-1-7,50.0,35.3,26.0,29.0,24.7,21.0,83,67,40,30.30,30.09,12,1,20,0.00
2013-1-8,55.0,38.3,27.0,37.0,27.6,21.0,81,67,36,30.33,30.24,7,1,12,0.00
2013-1-9,59.0,49.6,38.0,51.0,44.9,34.0,93,84,66,30.42,30.29,11,3,24,0.00
2013-1-10,59.0,50.4,44.0,54.0,45.7,33.0,96,84,57,30.48,30.33,6,1,12,0.00
2013-1-11,54.0,47.8,42.0,53.0,45.6,35.0,96,92,63,30.33,30.09,11,3,17,0.17
2013-1-12,71.0,60.6,53.0,59.0,55.2,50.0,93,83,61,30.17,30.09,12,4,26,0.02
2013-1-13,65.0,58.5,55.0,56.0,53.4,51.0,89,83,65,30.11,30.03,10,6,22,0.00
2013-1-14,58.0,55.3,46.0,57.0,54.0,45.0,96,95,88,30.15,30.04,8,1,14,1.74
2013-1-15,47.0,43.8,40.0,46.0,42.8,39.0,96,96,95,30.13,29.97,3,0,7,1.50
2013-1-16,62.0,46.2,43.0,51.0,31.3,-99.9,97,75,56,29.98,29.90,10,3,21,0.60
2013-1-17,50.0,39.2,28.0,48.0,37.7,25.0,100,94,91,30.10,29.83,10,3,19,0.83
2013-1-18,41.0,29.8,24.0,28.0,23.0,18.0,90,76,58,30.38,30.10,14,4,26,0.54
2013-1-19,51.0,35.5,24.0,31.0,23.9,17.0,85,65,30,30.34,30.04,15,2,23,0.17
2013-1-20,46.0,40.8,37.0,31.0,26.3,17.0,69,57,34,30.04,29.97,15,8,34,0.01
2013-1-21,42.0,35.8,25.0,28.0,19.8,9.0,67,52,45,29.98,29.80,23,10,43,0.00
2013-1-22,25.0,19.1,14.0,9.0,-0.2,-4.0,53,42,32,30.03,29.81,22,11,42,0.00
2013-1-23,36.0,25.9,17.0,25.0,12.8,-1.0,67,57,40,30.11,29.88,16,8,36,0.00
2013-1-24,36.0,25.4,15.0,28.0,12.4,3.0,74,58,40,30.27,29.82,30,12,58,0.00
2013-1-25,38.0,22.5,14.0,35.0,16.4,3.0,94,78,58,30.26,29.86,26,10,51,0.00
2013-1-26,42.0,32.2,25.0,29.0,23.1,20.0,82,69,55,30.21,29.91,12,4,27,0.12
2013-1-27,34.0,27.6,21.0,28.0,23.0,18.0,90,83,73,30.37,30.21,8,2,14,0.05
2013-1-28,60.0,44.5,31.0,45.0,36.6,27.0,93,76,54,30.29,30.16,14,3,28,0.09
2013-1-29,68.0,57.9,50.0,54.0,47.1,39.0,94,69,48,30.18,30.01,17,5,27,0.02
2013-1-30,58.0,52.9,42.0,57.0,49.1,-99.9,96,92,84,30.01,29.42,17,10,36,4.41
2013-1-31,42.0,28.8,25.0,37.0,21.1,18.0,82,72,65,29.83,29.42,26,11,42,1.70
2013-2-1,34.0,20.5,13.0,27.0,11.1,3.0,90,67,54,30.14,29.75,20,9,38,0.00
2013-2-2,32.0,22.9,13.0,28.0,14.6,3.0,92,71,50,30.14,29.85,13,4,24,0.01
2013-2-3,31.0,27.9,24.0,27.0,23.6,18.0,92,84,74,29.85,29.71,29,14,47,0.01
2013-2-4,43.0,31.8,20.0,26.0,20.4,13.0,78,63,50,29.96,29.82,15,4,36,0.06
2013-2-5,43.0,39.5,37.0,34.0,29.8,22.0,87,69,45,29.90,29.81,13,6,35,0.01
2013-2-6,51.0,41.1,34.0,32.0,25.2,16.0,75,55,28,30.18,29.88,21,5,39,0.01
2013-2-7,42.0,37.0,33.0,35.0,29.4,22.0,94,75,54,30.20,29.95,4,0,10,0.42
2013-2-8,45.0,37.2,29.0,42.0,33.1,23.0,96,85,57,29.97,29.80,19,6,35,0.48
2013-2-9,55.0,36.9,28.0,23.0,16.4,10.0,78,46,22,30.24,29.96,18,5,36,0.01
2013-2-10,46.0,38.4,33.0,34.0,22.7,18.0,94,55,38,30.29,30.08,13,5,26,0.20
2013-2-11,57.0,44.6,37.0,51.0,28.4,-99.9,96,66,43,30.06,29.92,21,8,45,0.38
2013-2-12,54.0,42.0,34.0,33.0,23.5,19.0,89,49,26,30.02,29.86,24,5,46,0.07
2013-2-13,43.0,36.2,31.0,40.0,34.1,28.0,95,92,84,29.87,29.54,15,5,31,0.49
2013-2-14,49.0,36.5,26.0,29.0,24.3,18.0,89,64,31,29.96,29.74,15,4,27,0.07
2013-2-15,41.0,37.0,33.0,33.0,30.0,28.0,83,76,71,29.98,29.94,7,2,22,0.01
2013-2-20,42.0,34.7,28.0,11.0,7.6,2.0,47,33,21,30.01,29.91,11,5,25,0.00
2013-2-21,61.0,40.0,25.0,25.0,12.0,4.0,62,33,15,30.14,29.96,5,0,11,0.00
2013-2-22,37.0,33.4,30.0,36.0,31.3,27.0,96,92,72,30.15,29.98,11,3,17,0.37
2013-2-23,54.0,34.1,34.0,49.0,6.7,-99.9,96,65,66,29.99,29.78,3,0,12,0.22
2013-2-24,52.0,42.4,35.0,39.0,28.5,21.0,82,59,38,29.97,29.77,14,4,31,0.01
2013-2-25,42.0,32.8,29.0,26.0,22.7,19.0,76,66,51,30.04,29.94,6,1,13,0.01
2013-2-26,39.0,32.6,27.0,38.0,30.4,20.0,96,91,71,29.98,29.49,5,1,16,0.94
2013-2-27,49.0,38.1,33.0,36.0,30.2,26.0,94,74,48,29.70,29.53,18,8,36,0.02
2013-2-28,34.0,29.2,27.0,29.0,24.0,22.0,89,81,73,29.74,29.59,13,7,28,0.02
2013-3-1,33.0,29.5,27.0,27.0,25.0,23.0,89,83,75,29.79,29.72,11,4,24,0.01
2013-3-2,31.0,27.7,21.0,26.0,22.2,15.0,85,80,70,29.79,29.72,11,3,24,0.02
2013-3-3,28.0,21.9,18.0,18.0,14.8,11.0,81,74,65,29.83,29.73,14,6,27,0.01
2013-3-4,47.0,31.3,19.0,23.0,13.9,11.0,74,51,28,29.97,29.81,15,5,27,0.02
2013-3-5,42.0,38.2,34.0,40.0,31.5,18.0,95,78,43,29.96,29.52,18,2,38,0.84
2013-3-6,34.0,25.4,22.0,30.0,22.1,18.0,95,87,83,29.96,29.51,22,9,52,0.42
2013-3-7,35.0,27.5,24.0,27.0,22.8,19.0,91,82,71,30.16,29.96,10,4,21,0.02
2013-3-8,43.0,32.0,23.0,27.0,22.4,18.0,81,68,51,30.23,30.09,10,3,23,0.01
2013-3-9,62.0,42.9,26.0,32.0,26.0,19.0,77,55,31,30.25,30.18,5,0,12,0.00
2013-3-10,58.0,48.2,40.0,36.0,31.9,28.0,66,53,42,30.22,30.12,10,4,20,0.00
2013-3-11,49.0,45.6,43.0,47.0,41.3,33.0,95,86,55,30.13,29.84,15,5,28,0.55
2013-3-12,49.0,43.9,37.0,48.0,38.2,26.0,96,81,60,29.93,29.72,17,6,30,1.01
2013-3-13,37.0,31.7,24.0,29.0,22.5,16.0,83,68,56,30.01,29.90,13,6,28,0.02
2013-3-14,40.0,28.9,19.0,18.0,15.1,12.0,77,58,38,30.12,30.00,13,7,26,0.01
2013-3-15,57.0,44.6,30.0,40.0,30.0,16.0,77,57,42,30.07,29.88,19,7,37,0.00
2013-3-16,68.0,58.1,53.0,49.0,45.0,40.0,81,62,49,29.87,29.72,20,9,41,0.05
2013-3-17,61.0,51.7,36.0,50.0,45.4,34.0,94,80,63,30.03,29.87,10,2,19,0.05
2013-3-18,44.0,35.1,31.0,43.0,33.9,30.0,96,95,94,30.03,29.77,9,1,15,0.31
2013-3-19,50.0,42.9,35.0,46.0,28.4,8.0,94,61,30,29.98,29.77,19,8,32,0.22
2013-3-20,36.0,31.1,27.0,10.0,8.6,6.0,49,39,32,29.98,29.93,11,3,17,0.01
2013-7-11,77.0,73.3,67.0,69.0,66.0,64.0,91,78,71,30.05,29.99,5,1,9,0.87
2013-7-12,79.0,67.1,61.0,68.0,62.8,59.0,94,87,62,30.12,29.98,6,0,12,0.27
2013-7-13,74.0,66.1,61.0,67.0,62.8,59.0,95,89,75,30.23,30.10,6,1,14,0.27
2013-7-14,76.0,68.2,65.0,69.0,65.6,63.0,95,91,75,30.40,30.21,8,3,24,1.41
2013-7-15,83.0,71.8,65.0,68.0,65.0,62.0,93,80,56,30.44,30.39,5,1,12,0.02
2013-7-16,88.0,72.4,60.0,69.0,63.9,58.0,95,77,49,30.44,30.36,6,1,15,0.61
2013-7-17,88.0,72.9,66.0,72.0,67.3,64.0,94,84,58,30.40,30.29,5,1,17,0.92
2013-7-18,85.0,72.8,63.0,72.0,66.8,61.0,95,83,63,30.31,30.20,4,0,9,0.33
2013-7-19,81.0,71.3,65.0,72.0,67.4,63.0,95,88,69,30.24,30.12,5,1,17,1.35
2013-7-20,80.0,70.8,65.0,71.0,65.6,-99.9,94,86,69,30.15,30.04,7,1,13,0.42
2013-7-21,82.0,72.1,65.0,70.0,66.3,63.0,93,83,60,30.12,30.04,5,1,11,0.01
2013-7-22,78.0,70.4,65.0,69.0,65.2,61.0,94,84,69,30.09,29.93,7,2,12,0.74
2013-7-23,78.0,70.4,66.0,66.0,63.5,62.0,94,80,61,29.98,29.89,10,4,24,0.74
2013-7-24,81.0,71.9,64.0,66.0,64.0,61.0,90,77,57,29.97,29.88,7,2,12,0.01
2013-7-25,78.0,68.3,60.0,67.0,62.0,57.0,94,81,58,30.14,29.96,4,1,10,0.00
2013-7-26,74.0,66.3,58.0,67.0,61.4,55.0,94,85,68,30.17,30.11,8,2,15,0.02
2013-7-27,73.0,65.3,63.0,68.0,63.3,62.0,96,93,79,30.12,30.00,7,1,12,3.62
2013-7-28,76.0,66.6,60.0,67.0,61.0,56.0,96,83,57,30.11,29.99,9,2,18,1.70
2013-7-29,77.0,65.0,54.0,57.0,53.7,49.0,93,70,38,30.28,30.11,5,1,13,0.01
2013-7-30,72.0,63.6,55.0,64.0,58.3,52.0,92,83,70,30.32,30.24,4,1,11,0.00
2013-7-31,67.0,63.8,60.0,65.0,61.1,56.0,95,91,73,30.26,30.07,4,1,8,0.17
2013-8-1,79.0,69.4,64.0,66.0,63.4,60.0,95,82,60,30.07,30.00,6,1,21,0.18
2013-8-2,80.0,68.2,57.0,64.0,59.8,55.0,94,77,52,30.14,30.04,6,1,10,0.03
2013-8-3,78.0,70.2,63.0,65.0,62.6,59.0,93,78,57,30.14,30.06,7,2,14,0.00
2013-8-4,76.0,69.6,62.0,65.0,60.5,56.0,93,74,54,30.15,30.05,8,3,21,0.28
2013-8-5,75.0,66.1,58.0,65.0,60.4,55.0,93,83,68,30.16,30.07,7,1,17,0.03
2013-8-6,78.0,69.1,64.0,68.0,63.5,60.0,94,83,64,30.13,30.04,6,1,13,0.00
2013-8-7,71.0,67.1,65.0,67.0,64.7,63.0,94,92,85,30.16,30.10,7,2,15,0.05
2013-8-8,76.0,69.6,66.0,71.0,66.8,64.0,94,91,79,30.16,30.11,8,1,13,0.86
2013-8-9,82.0,72.2,66.0,70.0,67.0,64.0,94,85,65,30.17,30.10,8,2,14,0.51
2013-8-10,80.0,71.0,64.0,70.0,66.5,62.0,94,86,68,30.23,30.16,9,2,17,0.34
2013-8-11,80.0,70.7,62.0,69.0,64.9,60.0,94,83,66,30.24,30.16,8,2,19,0.09
2013-8-21,77.0,68.2,62.0,68.0,64.3,60.0,94,88,71,30.33,30.21,6,1,11,0.01
2013-8-22,81.0,70.2,61.0,66.0,63.0,59.0,94,79,59,30.25,30.14,5,1,13,0.01
2013-8-23,75.0,68.4,64.0,66.0,62.9,61.0,93,83,68,30.18,30.10,7,1,16,0.02
2013-8-24,76.0,66.4,58.0,63.0,57.4,53.0,94,75,52,30.39,30.19,4,1,12,0.02
2013-8-25,75.0,61.6,53.0,60.0,52.2,-99.9,93,76,55,30.46,30.37,4,1,11,0.00
2013-8-26,78.0,64.9,52.0,63.0,57.0,50.0,94,77,54,30.40,30.22,8,1,16,0.00
2013-8-27,78.0,68.7,62.0,66.0,62.5,59.0,89,81,66,30.23,30.15,6,2,15,0.00
2013-10-2,76.0,61.4,51.0,59.0,54.2,49.0,95,79,54,30.22,30.15,4,1,12,0.01
2013-10-3,77.0,63.6,55.0,62.0,57.4,52.0,92,81,59,30.20,30.15,2,0,7,0.01
2013-10-4,78.0,65.4,56.0,63.0,58.5,54.0,94,80,56,30.23,30.16,5,1,12,0.00
2013-10-5,80.0,66.3,55.0,63.0,59.1,53.0,94,80,54,30.23,30.14,4,0,9,0.00
2013-10-6,73.0,66.2,62.0,62.0,59.9,58.0,89,80,67,30.14,29.96,11,3,18,0.00
2013-10-7,64.0,58.2,50.0,61.0,53.6,44.0,95,85,69,30.07,29.87,7,2,16,1.12
2013-10-8,50.0,45.3,41.0,44.0,41.1,38.0,91,85,79,30.21,30.06,1,0,7,0.01
2013-10-18,68.0,53.4,42.0,53.0,47.3,39.0,91,81,50,30.03,29.94,8,1,15,0.04
2013-10-19,58.0,53.8,48.0,52.0,47.8,40.0,93,81,53,29.98,29.84,10,3,21,0.00
2013-10-20,63.0,45.9,34.0,43.0,34.3,-99.9,87,69,40,30.09,29.93,5,1,13,0.00
2013-10-21,66.0,49.8,37.0,51.0,42.7,34.0,92,77,53,30.11,29.99,7,2,13,0.00
2013-10-22,61.0,53.9,48.0,47.0,44.3,41.0,91,71,56,30.00,29.81,11,4,21,0.00
2013-10-23,51.0,43.1,33.0,44.0,35.2,26.0,86,74,62,29.94,29.70,17,8,31,0.08
2013-10-24,41.0,35.8,32.0,33.0,28.4,25.0,77,74,71,30.04,29.94,10,4,20,0.06
2013-10-28,58.0,52.4,49.0,50.0,44.3,-99.9,91,83,70,30.26,30.20,5,1,9,0.00
2013-10-29,65.0,54.7,46.0,51.0,48.1,44.0,94,80,58,30.33,30.25,6,1,10,0.00
2013-10-30,66.0,59.0,52.0,55.0,52.1,48.0,92,78,66,30.28,30.19,11,2,24,0.08
2013-12-7,57.0,42.8,35.0,53.0,36.4,-99.9,92,83,68,30.32,30.00,8,1,16,0.02
2013-12-8,35.0,31.6,29.0,33.0,29.6,27.0,94,94,91,30.30,30.11,2,0,7,0.32
2013-12-9,58.0,46.3,33.0,52.0,43.4,32.0,96,89,78,30.10,29.98,11,3,20,0.17
2013-12-10,46.0,36.1,26.0,42.0,30.6,13.0,98,81,57,30.17,29.85,13,4,30,0.22
2013-12-11,46.0,33.2,21.0,19.0,14.0,10.0,73,47,30,30.28,30.14,13,4,32,0.02
2013-12-12,32.0,26.8,22.0,17.0,13.2,9.0,75,57,40,30.24,30.15,14,5,39,0.00
2013-12-13,47.0,33.4,25.0,21.0,16.2,11.0,66,50,34,30.21,30.15,7,2,20,0.00